TimeEST,TemperatureF,Dew PointF,Humidity,Sea Level PressureIn,VisibilityMPH,Wind Direction,Wind SpeedMPH,Gust SpeedMPH,PrecipitationIn,Events,Conditions,WindDirDegrees,DateUTC
12:54 AM,36.0,24.1,62,30.01,10.0,NNE,19.6,25.3,N/A,,Overcast,30,2013-03-07 05:54:00
1:54 AM,36.0,24.1,62,30.00,10.0,NNE,16.1,26.5,N/A,,Overcast,30,2013-03-07 06:54:00
2:54 AM,35.1,24.1,64,29.99,10.0,NE,18.4,26.5,N/A,,Overcast,40,2013-03-07 07:54:00
3:54 AM,35.1,24.1,64,30.00,10.0,NNE,20.7,27.6,N/A,,Overcast,20,2013-03-07 08:54:00
4:54 AM,35.1,23.0,61,30.01,10.0,NNE,16.1,26.5,N/A,,Overcast,20,2013-03-07 09:54:00
5:54 AM,35.1,23.0,61,30.03,10.0,NNE,17.3,31.1,N/A,,Overcast,20,2013-03-07 10:54:00
6:54 AM,35.1,21.9,59,30.04,10.0,NE,16.1,24.2,N/A,,Overcast,40,2013-03-07 11:54:00
7:54 AM,35.1,23.0,61,30.05,10.0,NNE,19.6,31.1,0.00,Snow,Light Snow,20,2013-03-07 12:54:00
8:54 AM,36.0,23.0,59,30.06,10.0,NNE,17.3,26.5,0.00,,Overcast,20,2013-03-07 13:54:00
9:54 AM,37.0,24.1,59,30.06,10.0,NNE,18.4,24.2,N/A,,Overcast,20,2013-03-07 14:54:00
10:54 AM,37.9,24.1,57,30.06,10.0,NNE,21.9,26.5,N/A,,Overcast,20,2013-03-07 15:54:00
11:54 AM,39.9,24.1,53,30.06,10.0,NNE,13.8,23.0,N/A,,Overcast,20,2013-03-07 16:54:00
12:32 PM,37.4,26.6,65,30.05,2.5,NE,11.5,-,0.00,Snow,Light Snow,40,2013-03-07 17:32:00
12:54 PM,37.0,28.9,73,30.05,3.0,NNE,10.4,-,0.00,Snow,Light Snow,20,2013-03-07 17:54:00
1:20 PM,37.4,30.2,75,30.04,1.8,NNE,9.2,-,0.00,Snow,Light Snow,30,2013-03-07 18:20:00
1:38 PM,35.6,30.2,81,30.04,3.0,NE,8.1,-,0.00,Snow,Light Snow,40,2013-03-07 18:38:00
1:54 PM,36.0,32.0,86,30.05,5.0,NE,6.9,-,0.00,Snow,Light Snow,50,2013-03-07 18:54:00
2:01 PM,35.6,32.0,87,30.04,2.5,NNE,8.1,-,0.00,Snow,Light Snow,30,2013-03-07 19:01:00
2:20 PM,35.6,32.0,87,30.05,3.0,NE,8.1,-,0.01,Snow,Light Snow,40,2013-03-07 19:20:00
2:29 PM,35.6,32.0,87,30.05,3.0,NNE,6.9,-,0.01,Snow,Light Snow,20,2013-03-07 19:29:00
2:54 PM,36.0,32.0,86,30.06,5.0,NNE,8.1,-,0.02,Snow,Light Snow,30,2013-03-07 19:54:00
3:24 PM,35.6,32.0,87,30.06,2.0,NNE,6.9,-,0.01,Snow,Light Snow,30,2013-03-07 20:24:00
3:31 PM,33.8,32.0,93,30.06,1.5,NNE,5.8,-,0.01,Snow,Light Snow,30,2013-03-07 20:31:00
3:54 PM,34.0,32.0,92,30.08,1.2,North,3.5,-,0.03,Snow,Light Snow,10,2013-03-07 20:54:00
4:45 PM,33.8,30.2,87,30.08,1.0,NNW,3.5,-,0.02,Snow,Light Snow,340,2013-03-07 21:45:00
4:54 PM,33.1,30.9,92,30.09,1.0,NNW,3.5,-,0.03,Snow,Light Snow,340,2013-03-07 21:54:00
5:03 PM,33.8,30.2,87,30.08,0.8,North,4.6,-,0.00,Snow,Light Snow,10,2013-03-07 22:03:00
5:54 PM,33.1,30.9,92,30.10,1.0,North,4.6,-,0.04,Snow,Light Snow,360,2013-03-07 22:54:00
6:01 PM,33.8,30.2,87,30.09,1.2,North,4.6,-,0.01,Snow,Light Snow,360,2013-03-07 23:01:00
6:54 PM,33.1,30.9,92,30.11,1.5,North,4.6,-,0.03,Snow,Light Snow,10,2013-03-07 23:54:00
7:02 PM,33.8,30.2,87,30.10,1.8,North,4.6,-,0.01,Snow,Light Snow,10,2013-03-08 00:02:00
7:35 PM,33.8,30.2,87,30.10,2.0,North,4.6,-,0.02,Snow,Light Snow,360,2013-03-08 00:35:00
7:45 PM,33.8,30.2,87,30.09,2.5,North,4.6,-,0.02,Snow,Light Snow,10,2013-03-08 00:45:00
7:54 PM,33.1,30.9,92,30.11,2.0,North,4.6,-,0.02,Snow,Light Snow,10,2013-03-08 00:54:00
8:01 PM,33.8,30.2,87,30.09,1.5,North,4.6,-,0.01,Snow,Light Snow,10,2013-03-08 01:01:00
8:19 PM,33.8,30.2,87,30.09,1.0,North,3.5,-,0.02,Snow,Light Snow,10,2013-03-08 01:19:00
8:46 PM,33.8,30.2,87,30.09,1.5,NNE,4.6,-,0.04,Snow,Light Snow,20,2013-03-08 01:46:00
8:54 PM,33.1,30.9,92,30.10,1.2,NNE,5.8,-,0.04,Snow,Light Snow,20,2013-03-08 01:54:00
9:02 PM,33.8,30.2,87,30.08,1.0,NNE,5.8,-,0.01,Snow,Light Snow,20,2013-03-08 02:02:00
9:13 PM,33.8,30.2,87,30.08,0.8,NNE,5.8,-,0.02,Snow,Light Snow,30,2013-03-08 02:13:00
9:24 PM,33.8,30.2,87,30.08,1.0,NNE,5.8,-,0.02,Snow,Light Snow,20,2013-03-08 02:24:00
9:54 PM,33.1,30.0,89,30.09,1.0,NNE,6.9,-,0.04,Snow,Light Snow,30,2013-03-08 02:54:00
10:05 PM,32.0,30.2,93,30.07,1.2,NNE,8.1,-,0.01,Snow,Light Snow,30,2013-03-08 03:05:00
10:54 PM,32.0,30.0,92,30.07,1.2,NNE,6.9,-,0.03,Snow,Light Snow,20,2013-03-08 03:54:00
11:29 PM,32.0,30.2,93,30.06,1.0,NNE,5.8,-,0.02,Snow,Light Snow,20,2013-03-08 04:29:00
11:40 PM,32.0,28.4,87,30.06,1.2,NNE,5.8,-,0.02,Snow,Light Snow,20,2013-03-08 04:40:00
11:54 PM,32.0,28.9,88,30.07,1.0,NNE,6.9,-,0.03,Snow,Light Snow,20,2013-03-08 04:54:00